x

8419317 - Wells, Me (welm1) Weather Station

10:18 - Wed 22nd Oct 2014 All times are EDT. -4 hours from GMT.

  • Wind
    16mph, 25mph gusts
  • Sea Temp 50°f
  • Luft Temp 49°f
  • Sea Pressure 1017.8mb
  • 8419317 - Wells, Me
  • 8419317 - Wells, Me

More Historic Weather Station data

Upgrade to MSW Pro to gain access to the past 30 days of data for over 8000 Wavebouys and Weather Stations around the globe.

Join Pro

Comparision Forecast

View Surf forecast
   
Mi 10/22 10:18 16 25 mph 1017.8mb 50f 49f
10:12 16 21 mph 1017.9mb 50f 49f
10:06 16 21 mph 1017.9mb 50f 49f
10:00 14 23 mph 1018.1mb 50f 49f
9:54 16 22 mph 1018mb 50f 49f
9:48 20 24 mph 1018mb 50f 49f
9:42 16 21 mph 1018.1mb 50f 49f
9:36 20 23 mph 1018mb 50f 49f
9:30 15 22 mph 1018.2mb 50f 49f
9:24 16 22 mph 1018.2mb 50f 49f
9:18 14 21 mph 1018.2mb 50f 49f
9:12 14 24 mph 1018.2mb 50f 49f
9:06 16 22 mph 1018.2mb 50f 49f
9:00 14 18 mph 1018.2mb 50f 49f
8:54 14 22 mph 1017.9mb 50f 49f
8:48 16 21 mph 1017.9mb 50f 49f
8:42 15 22 mph 1017.9mb 50f 49f
8:36 15 21 mph 1017.8mb 50f 49f
8:30 17 23 mph 1017.8mb 50f 49f
8:24 17 22 mph 1017.8mb 50f 49f
8:18 17 21 mph 1017.7mb 50f 49f
8:12 16 23 mph 1017.6mb 50f 49f
8:06 16 25 mph 1017.6mb 50f 49f
8:00 14 21 mph 1017.7mb 50f 50f
7:54 15 21 mph 1017.8mb 50f 50f
7:48 15 22 mph 1017.9mb 50f 50f
7:42 13 17 mph 1017.9mb 50f 50f
7:36 15 22 mph 1017.8mb 50f 50f
7:30 16 23 mph 1017.7mb 50f 50f
7:24 17 22 mph 1017.8mb 50f 51f
7:18 16 22 mph 1017.8mb 50f 51f
7:12 14 22 mph 1017.8mb 50f 51f
7:06 16 23 mph 1017.6mb 50f 51f
7:00 15 21 mph 1017.6mb 50f 51f
6:54 14 21 mph 1017.6mb 50f 51f
6:48 14 21 mph 1017.6mb 50f 51f
6:42 16 21 mph 1017.5mb 50f 51f
6:36 13 18 mph 1017.5mb 50f 51f
6:30 17 22 mph 1017.4mb 50f 51f
6:24 14 20 mph 1017.4mb 50f 50f
6:18 11 20 mph 1017.4mb 50f 51f
6:12 16 21 mph 1017.4mb 50f 50f
6:06 15 21 mph 1017.4mb 50f 50f
6:00 14 16 mph 1017.2mb 50f 50f
5:54 11 15 mph 1017.2mb 50f 50f
5:48 13 20 mph 1017.1mb 50f 50f
5:42 11 17 mph 1017.1mb 50f 50f
5:36 13 17 mph 1017.1mb 50f 51f
5:30 11 15 mph 1017.1mb 50f 51f
5:24 11 16 mph 1017.1mb 50f 51f
5:18 14 17 mph 1017mb 50f 51f
5:12 15 18 mph 1016.9mb 50f 51f
5:06 13 24 mph 1016.8mb 50f 52f
5:00 17 26 mph 1016.8mb 50f 52f
4:54 18 24 mph 1016.8mb 50f 53f
4:48 18 25 mph 1016.7mb 50f 52f
4:42 17 26 mph 1016.6mb 50f 53f
4:36 18 24 mph 1016.4mb 50f 53f
4:30 17 23 mph 1016.4mb 50f 53f
4:24 17 22 mph 1016.3mb 50f 52f
4:18 16 22 mph 1016.3mb 50f 52f
4:12 14 23 mph 1016.1mb 50f 52f
4:06 13 18 mph 1016.1mb 50f 51f
4:00 11 17 mph 1016.2mb 50f 50f
3:54 13 15 mph 1016.1mb 50f 50f
3:48 13 16 mph 1016.1mb 50f 50f
3:42 13 16 mph 1016mb 50f 50f
3:36 13 16 mph 1015.9mb 50f 50f
3:30 13 18 mph 1015.8mb 50f 50f
3:24 14 16 mph 1015.6mb 50f 50f
3:18 14 18 mph 1015.7mb 50f 50f
3:12 14 17 mph 1015.7mb 50f 50f
3:06 13 16 mph 1015.7mb 50f 50f
3:00 13 16 mph 1015.8mb 50f 50f
2:54 13 15 mph 1015.8mb 50f 50f
2:48 13 16 mph 1015.8mb 50f 50f
2:42 13 16 mph 1015.8mb 50f 49f
2:36 14 18 mph 1015.8mb 50f 50f
2:30 14 16 mph 1015.7mb 50f 50f
2:24 14 18 mph 1015.7mb 50f 49f
2:18 13 17 mph 1015.7mb 50f 49f
2:12 14 17 mph 1015.7mb 50f 49f
2:06 14 17 mph 1015.7mb 50f 49f
2:00 14 20 mph 1015.7mb 50f 49f
1:54 16 20 mph 1015.6mb 50f 49f
1:48 13 21 mph 1015.7mb 50f 49f
1:42 18 23 mph 1015.5mb 50f 49f
1:36 17 21 mph 1015.6mb 50f 48f
1:30 14 20 mph 1015.7mb 50f 48f
1:24 15 18 mph 1015.7mb 50f 48f
1:18 17 23 mph 1015.5mb 50f 48f
1:12 15 20 mph 1015.6mb 50f 48f
1:06 14 21 mph 1015.6mb 50f 48f
1:00 15 21 mph 1015.7mb 50f 48f
12:54 17 21 mph 1015.7mb 50f 48f
12:48 14 20 mph 1015.8mb 50f 48f
12:42 16 18 mph 1015.8mb 50f 48f
12:36 17 20 mph 1015.8mb 50f 48f
12:30 16 20 mph 1015.8mb 50f 48f
12:24 16 20 mph 1015.8mb 50f 48f
12:18 16 22 mph 1015.7mb 50f 48f
12:12 15 22 mph 1015.7mb 50f 48f
12:06 16 20 mph 1015.8mb 50f 48f
12:00 15 20 mph 1015.9mb 50f 48f
Di 10/21 11:54 15 22 mph 1015.9mb 50f 49f
11:48 18 22 mph 1015.8mb 50f 49f
11:42 16 22 mph 1015.8mb 50f 49f
11:36 16 22 mph 1015.9mb 50f 49f
11:30 15 20 mph 1015.9mb 50f 49f
11:24 16 21 mph 1015.8mb 50f 49f
11:18 18 25 mph 1015.8mb 50f 49f
11:12 14 20 mph 1015.8mb 50f 49f
11:06 15 18 mph 1015.8mb 50f 49f
11:00 13 18 mph 1015.8mb 50f 49f
10:54 16 21 mph 1015.7mb 50f 49f
10:48 15 21 mph 1015.5mb 50f 49f
10:42 17 21 mph 1015.5mb 50f 49f
10:36 16 20 mph 1015.7mb 50f 49f
10:30 16 20 mph 1015.7mb 50f 49f
10:24 15 21 mph 1015.7mb 50f 49f
10:18 17 20 mph 1015.6mb 50f 49f
10:12 15 18 mph 1015.5mb 50f 49f
10:06 15 20 mph 1015.5mb 50f 50f
10:00 14 21 mph 1015.5mb 50f 50f
9:54 15 21 mph 1015.5mb 50f 50f
9:48 14 17 mph 1015.5mb 50f 50f
9:42 15 18 mph 1015.4mb 50f 50f
9:36 15 18 mph 1015.4mb 50f 50f
9:30 14 18 mph 1015.3mb 50f 50f
9:24 14 20 mph 1015.2mb 50f 50f
9:18 16 20 mph 1015.1mb 50f 50f
9:12 15 21 mph 1015mb 50f 50f
9:06 15 21 mph 1015mb 50f 50f
9:00 17 22 mph 1014.8mb 50f 50f
8:54 13 21 mph 1014.9mb 50f 50f
8:48 17 21 mph 1014.8mb 50f 50f
8:42 15 22 mph 1014.7mb 50f 50f
8:36 13 18 mph 1014.7mb 50f 51f
8:30 14 18 mph 1014.6mb 50f 51f
8:24 16 20 mph 1014.6mb 50f 51f
8:18 14 20 mph 1014.6mb 50f 51f
8:12 14 17 mph 1014.5mb 50f 51f
8:06 15 20 mph 1014.4mb 50f 51f
8:00 11 16 mph 1014.5mb 50f 52f
7:54 13 18 mph 1014.4mb 50f 52f
7:48 13 16 mph 1014.4mb 50f 52f
7:42 10 13 mph 1014.5mb 50f 52f
7:36 10 14 mph 1014.6mb 50f 52f
7:30 13 14 mph 1014.6mb 50f 52f
7:24 10 15 mph 1014.5mb 50f 52f
7:18 11 15 mph 1014.5mb 50f 52f
7:12 13 15 mph 1014.4mb 50f 52f
7:06 11 14 mph 1014.4mb 50f 52f
7:00 10 14 mph 1014.4mb 50f 52f
6:54 10 14 mph 1014.4mb 50f 52f
6:48 11 14 mph 1014.4mb 50f 52f
6:42 11 15 mph 1014.4mb 50f 52f
6:36 13 15 mph 1014.4mb 50f 52f
6:30 10 14 mph 1014.5mb 50f 52f
6:24 9 13 mph 1014.4mb 50f 53f
6:18 8 11 mph 1014.5mb 50f 53f
6:12 8 11 mph 1014.5mb 50f 53f
6:06 6 9 mph 1014.4mb 50f 53f
6:00 8 13 mph 1014.2mb 50f 53f
5:54 10 13 mph 1014.1mb 50f 53f
5:48 10 14 mph 1014.1mb 50f 53f
5:42 9 10 mph 1014mb 50f 53f
5:36 9 13 mph 1014mb 50f 53f
5:30 10 11 mph 1014mb 50f 53f
5:24 9 10 mph 1013.9mb 50f 53f
5:18 7 11 mph 1014mb 50f 53f
5:12 9 11 mph 1014.1mb 50f 53f
5:06 9 11 mph 1014.1mb 50f 53f
5:00 8 10 mph 1014.1mb 50f 53f
4:54 7 9 mph 1014.1mb 50f 53f
4:48 7 9 mph 1014.1mb 50f 53f
4:42 6 8 mph 1014mb 50f 53f
4:36 6 9 mph 1013.9mb 50f 53f
4:30 7 10 mph 1014mb 50f 53f
4:24 6 8 mph 1014.1mb 50f 53f
4:18 6 10 mph 1014.1mb 50f 53f
4:12 9 10 mph 1014mb 50f 53f
4:06 9 11 mph 1014mb 50f 53f
4:00 7 8 mph 1014mb 50f 53f
3:54 7 10 mph 1014mb 50f 53f
3:48 9 11 mph 1013.9mb 50f 53f
3:42 8 11 mph 1013.8mb 50f 53f
3:36 8 13 mph 1013.8mb 50f 53f
3:30 7 9 mph 1013.8mb 50f -
3:24 7 9 mph 1013.9mb 50f -
3:18 7 10 mph 1014.1mb 50f 53f
3:12 10 11 mph 1014mb 50f 53f
3:06 10 13 mph 1014mb 50f 53f
3:00 9 11 mph 1014mb 50f 53f
2:54 7 9 mph 1014mb 50f 53f
2:48 8 10 mph 1014mb 50f 53f
2:42 6 7 mph 1014mb 50f 54f
2:36 5 9 mph 1014mb 50f 54f
2:30 8 9 mph 1013.9mb 50f 54f
2:24 6 8 mph 1013.8mb 50f 54f
2:18 6 8 mph 1013.8mb 50f 54f
2:12 6 8 mph 1013.8mb 50f 55f
2:06 6 8 mph 1013.8mb 50f 55f
2:00 6 8 mph 1013.8mb 50f 55f
1:54 7 10 mph 1013.8mb 50f 55f
1:48 8 10 mph 1013.7mb 50f 55f
1:42 8 10 mph 1013.8mb 50f 55f
1:36 6 8 mph 1013.8mb 50f 55f
1:30 5 8 mph - 50f -
1:24 7 8 mph - 50f -
1:18 7 8 mph 1013.9mb 50f 55f
1:12 7 8 mph 1014.1mb 50f 55f
1:06 7 8 mph 1014.2mb 50f 55f
1:00 6 8 mph 1014.3mb 50f 55f
12:54 6 8 mph 1014.4mb 50f 55f
12:48 7 8 mph 1014.5mb 50f 55f
12:42 7 9 mph 1014.5mb 50f 55f
12:36 8 9 mph 1014.6mb 50f 55f
12:30 7 10 mph 1014.6mb 50f 55f
12:24 9 10 mph 1014.6mb 50f 55f
12:18 8 11 mph 1014.7mb 50f 55f
12:12 9 11 mph 1014.6mb 50f 55f
12:06 9 11 mph 1014.8mb 50f 55f
12:00 8 10 mph 1014.9mb 50f 55f
11:54 7 10 mph 1015mb 50f 54f
11:48 8 9 mph 1015mb 50f 54f
11:42 7 9 mph 1015.2mb 50f 54f
11:36 8 10 mph 1015.1mb 50f 54f
11:30 8 10 mph 1015.2mb 50f 54f
11:24 9 11 mph 1015.2mb 50f 54f
11:18 10 11 mph 1015.1mb 50f 54f
11:12 9 11 mph 1015.2mb 50f 53f
11:06 9 13 mph 1015.3mb 50f 53f
11:00 10 11 mph 1015.3mb 50f 53f
10:54 8 10 mph 1015.4mb 50f 52f
10:48 8 10 mph 1015.5mb 50f 52f
10:42 8 10 mph 1015.5mb 50f 52f
10:36 8 10 mph 1015.5mb 50f 52f
10:30 8 10 mph 1015.6mb 50f 52f
10:24 9 11 mph 1015.6mb 50f 51f
10:18 9 13 mph 1015.7mb 50f 51f
10:12 10 13 mph 1015.7mb 50f 51f
10:06 9 11 mph 1015.7mb 50f 51f
10:00 8 11 mph 1015.8mb 50f 50f
9:54 9 10 mph 1015.9mb 50f 50f
9:48 8 9 mph 1015.9mb 50f 50f
9:42 6 8 mph 1016mb 50f 50f
9:36 7 10 mph 1016mb 50f 50f
9:30 8 9 mph 1015.8mb 50f 49f
9:24 8 9 mph 1015.8mb 50f 49f
9:18 7 9 mph 1015.9mb 50f 49f
9:12 6 8 mph 1015.8mb 50f 49f
9:06 7 8 mph 1015.8mb 50f 49f
9:00 6 7 mph 1015.8mb 50f 49f
8:54 5 6 mph 1015.8mb 50f 49f
8:48 6 8 mph 1015.7mb 50f 48f
8:42 7 8 mph 1015.6mb 50f 48f
8:36 6
mph
1015.6mb 50f 48f
8:30 5 7 mph 1015.6mb 50f 48f
8:24 6 7 mph 1015.5mb 50f 47f
8:18 5 7 mph 1015.4mb 50f 47f
8:12 5 7 mph 1015.4mb 50f 47f
8:06 6 8 mph 1015.3mb 50f 47f
8:00 7
mph
1015.3mb 50f 46f
7:54 6 7 mph 1015.3mb 50f 46f
7:48 6 8 mph 1015.4mb 50f 46f
7:42 6 8 mph 1015.4mb 50f 46f
7:36 6 8 mph 1015.3mb 50f 46f
7:30 7 8 mph 1015.3mb 50f 45f
7:24 7 8 mph 1015.2mb 50f 45f
7:18 6 7 mph 1015.2mb 50f 45f
7:12 6 7 mph 1015.1mb 50f 45f
7:06 6 7 mph 1015.1mb 50f 45f
7:00 6
mph
1015mb 50f 45f
6:54 5 6 mph 1015.1mb 50f 44f
6:48 6
mph
1015.2mb 50f 44f
6:42 5 6 mph 1015.1mb 50f 44f
6:36 6
mph
1015.1mb 50f 44f
6:30 5 6 mph 1015.1mb 50f 44f
6:24 3 5 mph 1015.1mb 50f 44f
6:18 5
mph
1015mb 50f 44f
6:12 5
mph
1015.1mb 49f 44f
6:06 5
mph
1015.2mb 49f 44f
6:00 2 3 mph 1015.3mb 49f 44f
5:54 1
mph
1015.2mb 49f 45f
5:48  -  3 mph 1015.2mb 49f 45f
5:42 2 3 mph 1015.1mb 49f 45f
5:36 2 5 mph 1015.2mb 49f 45f
5:30 5
mph
1015.1mb 49f 45f
5:24 3 5 mph 1015.2mb 49f 45f
5:18 2 3 mph 1015.2mb 49f 45f
5:12 2 3 mph 1015.3mb 50f 45f
5:06 3
mph
1015.2mb 50f 45f
5:00 2
mph
1015.2mb 50f 45f
4:54 2 3 mph 1015.1mb 50f 45f
4:48 3
mph
1015mb 50f 45f
4:42 3
mph
1015mb 50f 45f
4:36 2 3 mph 1014.9mb 50f 45f
4:30 3
mph
1015mb 50f 45f
4:24 3
mph
1015mb 50f 45f
4:18 3
mph
1015mb 50f 45f
4:12 2 3 mph 1015mb 50f 45f
4:06 2
mph
1015mb 50f 46f
4:00 2
mph
1015.1mb 50f 45f
3:54 1
mph
1015.1mb 50f 46f
3:48  -  1 mph 1015.2mb 50f 46f
3:42 1 2 mph 1015.2mb 50f 46f
3:36 2
mph
1015.2mb 50f 46f
3:30 1 2 mph 1015.2mb 50f 46f
3:24 1 2 mph 1015.2mb 50f 47f
3:18 2
mph
1015.2mb 50f 47f
3:12 2 3 mph 1015.2mb 50f 47f
3:06 3
mph
1015.2mb 50f 48f
3:00  -  1 mph 1015.3mb 50f 48f
2:54 1 2 mph 1015.2mb 50f 48f
2:48 1 2 mph 1015.1mb 50f 48f
2:42  -  1 mph 1015.1mb 50f 48f
2:36 1
mph
1015mb 50f 47f
2:30 1 3 mph 1015.1mb 50f 47f
2:24 3 5 mph 1015.1mb 50f 47f
2:18 3 5 mph 1015mb 50f 47f
2:12 2
mph
1015mb 50f 48f
2:06 2 5 mph 1015.1mb 50f 49f
2:00 2 5 mph 1015.2mb 50f 49f
1:54 3
mph
1015.2mb 50f 49f
1:48 2 5 mph 1015.1mb 50f 50f
1:42 3 5 mph 1015.2mb 50f 50f
1:36 3
mph
1015.3mb 50f 49f
1:30 1 2 mph 1015.2mb 50f 49f
1:24  -  1 mph 1015.2mb 50f 49f
1:18  -  1 mph 1015.2mb 50f 49f
1:12  -  1 mph 1015.2mb 50f 49f
1:06 1 2 mph 1015.3mb 50f 49f
1:00 1 5 mph 1015.3mb 50f 50f
12:54 3 5 mph 1015.3mb 50f 50f
12:48 3 5 mph 1015.3mb 50f 50f
12:42 3 5 mph 1015.2mb 50f 50f
12:36 3 5 mph 1015.2mb 50f 50f
12:30 3 6 mph 1015.2mb 50f 50f
12:24 3 5 mph 1015.2mb 50f 50f
12:18 3 6 mph 1015.2mb 50f 50f
12:12 2 5 mph 1015.1mb 50f 50f
12:06 3 6 mph 1015.1mb 50f 50f
12:00 5 6 mph 1015.1mb 50f 50f
Mo 10/20 11:54 3 6 mph 1015.1mb 50f 50f
11:48 5 6 mph 1015.1mb 50f 50f
11:42 3 8 mph 1015mb 50f 50f
11:36 2 6 mph 1014.9mb 50f 50f
11:30 5 7 mph 1015mb 50f 50f
11:24 3 7 mph 1015mb 50f 50f
11:18 3 8 mph 1015mb 50f 50f
11:12 3 6 mph 1014.9mb 50f 50f
11:06 5 8 mph 1014.8mb 50f 50f
11:00 3 6 mph 1014.7mb 50f 50f
10:54 3 7 mph 1014.6mb 50f 50f
10:48 5 8 mph 1014.8mb 50f 50f
9:54  -  mph 1014.7mb 50f 48f
9:48  -  mph 1014.7mb 50f 48f
9:24  -  mph - 50f -
9:18  -  mph - 50f -
9:12 1 2 mph - - -
9:06 2
mph
- - -
9:00 1 2 mph - - -
8:54 1 2 mph - - -
8:48  -  mph - 50f 48f
8:42  -  mph - 50f 47f
8:36  -  mph - 50f 48f
8:30  -  2 mph 1014.3mb 50f 47f
8:24  -  1 mph 1014.2mb 50f 47f
8:18  -  2 mph 1014.1mb 50f 47f
8:12 2
mph
1014.1mb 50f 47f
8:06 1 2 mph 1014.1mb 50f 48f
8:00 2
mph
1014.1mb 50f 48f
7:54 2 3 mph 1014mb 50f 48f
7:48 3 5 mph 1014.1mb 50f 48f
7:42 3 5 mph 1014.2mb 50f 48f
7:36 1 2 mph 1014.1mb 50f 48f
7:30  -  2 mph 1014mb 50f 49f
7:24 2 3 mph 1014mb 50f 48f
7:18  -  2 mph 1013.9mb 50f 48f
7:12  -  2 mph 1013.9mb 50f 49f
7:06 1 2 mph 1013.9mb 50f 50f
7:00 2 3 mph 1014mb 50f 50f
6:54 3
mph
1014mb 50f 51f
6:48 3
mph
1013.8mb 50f 51f
6:42 3 5 mph 1013.9mb 50f 51f
6:36 5
mph
1013.8mb 50f 51f
6:30 3 6 mph 1013.8mb 50f 51f
6:24 5 6 mph 1013.7mb 50f 51f
6:18 5 6 mph 1013.8mb 50f 51f
6:12 5
mph
1013.7mb 50f 51f
6:06 5
mph
1013.6mb 50f 51f
6:00 3 5 mph 1013.6mb 50f 51f
5:54 3 5 mph 1013.6mb 51f 52f
5:48 5 6 mph 1013.5mb 51f 52f
5:42 5
mph
1013.5mb 51f 52f
5:36 3 5 mph 1013.5mb 51f 53f
5:30 3 6 mph 1013.5mb 51f 53f
5:24 2 3 mph 1013.5mb 51f 54f
5:18 3 6 mph 1013.4mb 51f 54f
5:12 3 6 mph 1013.3mb 50f 54f
5:06 3 7 mph 1013.3mb 50f 55f
5:00 5 7 mph 1013.3mb 50f 55f
4:54 6 8 mph 1013.2mb 50f 55f
4:48 6 10 mph 1013.1mb 50f 55f
4:42 8 11 mph 1013.1mb 50f 55f
4:36 9 13 mph 1013.1mb 50f 55f
4:30 7 11 mph 1013.1mb 50f 55f
4:24 8 15 mph 1013.1mb 50f 55f
4:18 8 14 mph 1013.2mb 50f 55f
4:12 11 14 mph 1013.2mb 50f 55f
4:06 8 13 mph 1013.1mb 50f 55f
4:00 7 14 mph 1013.1mb 50f 55f
3:54 6 14 mph 1013.1mb 50f 55f
3:48 10 15 mph 1013.1mb 50f 54f
3:42 8 14 mph 1013mb 50f 55f
3:36 9 14 mph 1013mb 50f 54f
3:30 7 11 mph 1013mb 50f 55f
3:24 9 13 mph 1013mb 50f 54f
3:18 10 16 mph 1013mb 50f 53f
3:12 6 14 mph 1013mb 50f 54f
3:06 6 10 mph 1013mb 50f 54f
3:00 7 11 mph 1013.1mb 50f 53f
2:54 7 14 mph 1013mb 50f 52f
2:48 8 13 mph 1013.1mb 50f 53f
2:42 7 14 mph 1013.1mb 50f 53f
2:36 7 18 mph 1013mb 50f 52f
2:30 10 15 mph 1013.2mb 50f 53f
2:24 8 15 mph 1013.2mb 50f 52f
2:18 11 15 mph 1013.2mb 50f 52f
2:12 9 14 mph 1013.1mb 50f 52f
2:06 8 11 mph 1013.2mb 50f 52f
2:00 8 13 mph 1013.3mb 50f 52f
1:54 7 15 mph 1013.4mb 50f 51f
1:48 8 18 mph 1013.5mb 50f 52f
1:42 9 15 mph 1013.5mb 50f 51f
1:36 9 15 mph 1013.5mb 50f 51f
1:30 10 17 mph 1013.7mb 50f 51f
1:24 10 16 mph 1013.9mb 50f 51f
1:18 10 20 mph 1013.9mb 50f 51f
1:12 9 15 mph 1013.9mb 50f 50f
1:06 9 16 mph 1013.9mb 50f 49f
1:00 10 17 mph 1014mb 50f 49f
12:54 9 17 mph 1014.1mb 50f 49f
12:48 8 15 mph 1014.1mb 50f 48f
12:42 13 22 mph 1014.2mb 50f 48f
12:36 10 14 mph 1014.2mb 50f 48f
12:30 9 17 mph 1014.2mb 50f 48f
12:24 9 14 mph 1014.3mb 50f 48f
12:18 7 14 mph 1014.4mb 50f 48f
12:12 9 15 mph 1014.4mb 50f 48f
12:06 6 11 mph 1014.5mb 50f 48f
12:00 7 14 mph 1014.6mb 50f 48f
11:54 6 17 mph 1014.7mb 50f 48f
11:48 10 15 mph 1014.7mb 50f 48f
11:42 8 11 mph 1014.7mb 50f 48f
11:36 8 14 mph 1014.8mb 50f 47f
11:30 7 14 mph 1014.9mb 50f 46f
11:24 7 14 mph 1015mb 50f 47f
11:18 10 14 mph 1015mb 50f 47f
11:12 8 14 mph 1014.9mb 50f 47f
11:06 7 11 mph 1015mb 50f 47f
11:00 8 13 mph 1014.9mb 50f 47f
10:54 9 14 mph 1014.9mb 50f 46f
10:48 10 17 mph 1015mb 50f 46f
10:42 8 14 mph 1015mb 50f 46f
10:36 7 17 mph 1015mb 50f 46f
10:30 7 14 mph 1015mb 50f 46f
10:24 7 14 mph 1014.9mb 50f 46f
10:18 8 16 mph 1014.9mb 50f 44f
10:12 10 15 mph 1015.1mb 50f 44f
10:06 10 21 mph 1015.3mb 50f 44f
10:00 9 14 mph 1015.3mb 50f 44f
9:54 9 14 mph 1015.2mb 50f 44f
9:48 9 14 mph 1015.2mb 50f 44f
9:42 8 14 mph 1015.4mb 50f 44f
9:36 9 13 mph 1015.3mb 50f 44f
9:30 6 10 mph 1015.3mb 50f 43f
9:24 7 13 mph 1015.3mb 50f 43f
9:18 10 14 mph 1015.2mb 50f 43f
9:12 10 14 mph 1015.2mb 50f 43f
9:06 7 11 mph 1015.2mb 50f 43f
9:00 6 13 mph 1015.2mb 50f 43f
8:54 7 11 mph 1015.1mb 50f 43f
8:48 8 10 mph 1015.1mb 50f 43f
8:42 7 10 mph 1015.1mb 50f 42f
8:36 6 10 mph 1015mb 50f 43f
8:30 7 13 mph 1015.1mb 50f 42f
8:24 8 13 mph 1015.1mb 50f 42f
8:18 10 14 mph 1015mb 50f 41f
8:12 7 13 mph 1015mb 50f 41f
8:06 6 14 mph 1014.9mb 50f 41f
8:00 9 13 mph 1014.8mb 50f 41f
7:54 7 9 mph 1014.7mb 50f 40f
7:48 7 9 mph 1014.6mb 50f 40f
7:42 5 8 mph 1014.5mb 50f 40f
7:36 6 9 mph 1014.4mb 50f 39f
7:30 5 8 mph 1014.4mb 50f 39f
7:24 5 7 mph 1014.3mb 50f 38f
7:18 6 10 mph 1014.3mb 50f 38f
7:12 6 8 mph 1014.3mb 50f 38f
7:06 7 10 mph 1014.3mb 50f 38f
7:00 6 9 mph 1014.2mb 50f 38f
6:54 6 9 mph 1014.2mb 50f 38f
6:48 6 8 mph 1014.1mb 50f 38f
6:42 6 9 mph 1014mb 50f 38f
6:36 3 8 mph 1014mb 50f 38f
6:30 3 6 mph 1013.9mb 50f 38f
6:24 3 7 mph 1013.8mb 50f 38f
6:18 5 9 mph 1013.8mb 50f 38f
6:06 6 8 mph 1013.6mb 50f 38f
6:00 6 9 mph 1013.6mb 50f 38f
5:54 6 10 mph 1013.7mb 50f 38f
5:48 2 8 mph 1013.7mb 50f 38f
5:42 5 6 mph 1013.6mb 50f 38f
5:36 3 7 mph 1013.6mb 50f 38f
5:30 3 7 mph 1013.5mb 50f 38f
5:24 3 8 mph 1013.5mb 50f 38f
5:18 5 8 mph 1013.4mb 49f 38f
5:12 7 9 mph 1013.5mb 49f 38f
5:06 6 10 mph 1013.5mb 49f 38f
5:00 6 10 mph 1013.4mb 49f 38f
4:54 9 11 mph 1013.4mb 49f 38f
4:48 7 11 mph 1013.4mb 49f 38f
4:42 8 13 mph 1013.4mb 49f 38f
4:36 8 11 mph 1013.3mb 49f 38f
4:30 8 10 mph 1013.5mb 50f 38f
4:24 6 9 mph 1013.6mb 50f 38f
4:18 5 8 mph 1013.5mb 50f 38f
4:12 6 9 mph 1013.5mb 50f 38f
4:06 6 10 mph 1013.5mb 50f 38f
4:00 6 10 mph 1013.4mb 50f 38f
3:54 7 13 mph 1013.3mb 50f 38f
3:48 7 11 mph 1013.2mb 50f 38f
3:42 7 11 mph 1013.1mb 50f 39f
3:36 9 13 mph 1013.1mb 50f 39f
3:30 9 14 mph 1013mb 50f 39f
3:24 9 14 mph 1013mb 50f 39f
3:18 9 13 mph 1012.9mb 50f 39f
3:12 8 13 mph 1013mb 50f 39f
3:06 7 13 mph 1013.1mb 50f 39f
3:00 8 11 mph 1013mb 50f 39f
2:54 8 13 mph 1013mb 50f 40f
2:48 7 14 mph 1013mb 50f 40f
2:42 10 14 mph 1013mb 50f 40f
2:36 7 13 mph 1013mb 50f 40f
2:30 7 10 mph 1013mb 50f 40f
2:24 6 9 mph 1013mb 51f 40f
2:18 6 9 mph 1012.9mb 50f 40f
2:12 6 10 mph 1012.8mb 50f 41f
2:06 8 14 mph 1012.8mb 50f 41f
2:00 7 11 mph 1012.8mb 50f 41f
1:54 6 10 mph 1012.8mb 51f 41f
1:48 8 11 mph 1012.7mb 51f 42f
1:42 6 9 mph 1012.7mb 51f 42f
1:36 7 11 mph 1012.6mb 51f 42f
1:30 7 10 mph 1012.6mb 51f 42f
1:24 6 11 mph 1012.5mb 51f 42f
1:18 6 11 mph 1012.4mb 50f 42f
1:12 8 13 mph 1012.5mb 50f 42f
1:06 7 14 mph 1012.4mb 50f 42f
1:00 6 11 mph 1012.3mb 50f 42f
12:30 7 10 mph 1012.1mb 50f 42f
12:24 7 11 mph 1012.1mb 50f 42f
12:18 6 11 mph 1012.1mb 50f 42f
12:12 8 13 mph 1012.1mb 50f 43f
12:06 6 10 mph 1012.1mb 50f 43f
12:00 6 9 mph 1012mb 50f 43f
So 10/19 11:54 6 8 mph 1012mb 50f 43f
11:48 6 8 mph 1012mb 50f 43f
11:30 7 8 mph 1012mb 50f 43f
11:24 6 8 mph 1011.9mb 50f 43f
11:18 6 8 mph 1011.9mb 50f 43f
11:12 3 7 mph 1011.9mb 50f 44f
11:06 6 11 mph 1011.9mb 50f 44f
11:00 7 9 mph 1011.8mb 50f 44f
10:54 6 10 mph 1011.8mb 51f 44f
10:48 7 10 mph 1011.8mb 50f 44f
10:42 6 13 mph 1011.8mb 50f 44f
10:36 6 10 mph 1011.8mb 51f 44f
10:30 7 14 mph 1011.7mb 51f -
10:24 9 13 mph 1011.7mb 51f -
10:18 9 14 mph 1011.6mb 51f 45f
10:12 7 14 mph 1011.6mb 51f 45f
10:06 8 11 mph 1011.5mb 51f 45f
10:00 8 16 mph 1011.5mb 51f 45f
9:54 10 16 mph 1011.4mb 51f 45f
9:48 7 14 mph 1011.4mb 51f 45f
9:42 13 17 mph 1011.4mb 51f 45f
9:36 9 14 mph 1011.4mb 51f 45f
9:30 8 13 mph 1011.3mb 51f 45f
9:24 9 11 mph 1011.3mb 51f 46f
9:18 9 14 mph 1011.2mb 51f 46f
9:12 14 16 mph 1011.1mb 51f 46f
9:06 10 20 mph 1011.1mb 51f 46f
9:00 9 15 mph 1011mb 51f 46f
8:54 10 15 mph 1011mb 51f 46f
8:48 9 18 mph 1011mb 51f 46f
8:42 9 13 mph 1010.9mb 51f 46f
8:36 11 16 mph 1010.9mb 51f 46f
8:30 10 14 mph 1010.8mb 51f 46f
8:24 7 13 mph 1010.8mb 51f 46f
8:18 7 14 mph 1010.6mb 51f 46f
8:12 6 9 mph 1010.6mb 51f 46f
8:06 7 9 mph 1010.5mb 51f 46f
8:00 8 13 mph 1010.5mb 51f 46f
7:54 10 14 mph 1010.5mb 51f 46f
7:48 6 10 mph 1010.4mb 51f 46f
7:42 6 11 mph 1010.4mb 51f 46f
7:36 7 14 mph 1010.4mb 51f 46f
7:30 10 15 mph 1010.3mb 51f 46f
7:24 10 17 mph 1010.3mb 51f 46f
7:18 9 18 mph 1010.2mb 51f 47f
7:12 10 15 mph 1010.2mb 51f 46f
7:06 10 15 mph 1010mb 51f 47f
7:00 14 18 mph 1009.9mb 51f 47f
6:54 13 17 mph 1009.9mb 51f 47f
6:48 14 18 mph 1009.9mb 51f 47f
6:42 13 20 mph 1009.8mb 51f 47f
6:36 10 16 mph 1009.8mb 51f 47f
6:30 13 15 mph 1009.7mb 51f 47f
6:24 13 16 mph 1009.6mb 51f 47f
6:18 13 21 mph 1009.6mb 51f 47f
6:12 14 18 mph 1009.5mb 51f 48f
6:06 14 21 mph 1009.5mb 51f 48f
6:00 15 21 mph 1009.4mb 51f 48f
5:54 13 16 mph 1009.3mb 51f 48f
5:48 14 18 mph 1009.3mb 51f 48f
5:42 13 17 mph 1009.2mb 51f 48f
5:36 15 22 mph 1009.2mb 51f 48f
5:30 14 21 mph 1009.1mb 52f 49f
5:24 11 17 mph 1009.1mb 52f 49f
5:18 14 20 mph 1009mb 51f 49f
5:12 16 21 mph 1009mb 52f 49f
5:06 14 18 mph 1008.9mb 52f 49f
5:00 10 16 mph 1008.9mb 52f 49f
4:54 11 16 mph 1008.8mb 53f 50f
4:48 13 17 mph 1008.7mb 53f 50f
4:42 8 11 mph 1008.6mb 53f 50f
4:36 8 14 mph 1008.5mb 53f 50f
4:30 7 11 mph 1008.4mb 53f 50f
4:24 6 8 mph 1008.3mb 53f 50f
4:18 6 11 mph 1008.1mb 53f 50f
4:12 5 8 mph 1008mb 53f 50f
4:06 6 13 mph 1008mb 53f 50f
4:00 9 13 mph 1007.8mb 53f 50f
3:54 7 16 mph 1007.7mb 53f 50f
3:48 9 14 mph 1007.5mb 53f 51f
3:42 7 15 mph 1007.4mb 53f 51f
3:36 11 16 mph 1007.3mb 53f 51f
3:30 10 14 mph 1007.2mb 53f 51f
3:24 11 15 mph 1007.1mb 53f 51f
3:18 6 15 mph 1007.2mb 53f 51f
3:12 11 15 mph 1007mb 53f 52f
3:06 5 8 mph 1007mb 52f 52f
3:00 7 9 mph 1007mb 52f 52f
2:54 8 10 mph 1007mb 52f 52f
2:48 5 8 mph 1007mb 52f 52f
2:42 5 9 mph 1006.9mb 52f 52f
2:36 7 9 mph 1006.7mb 52f 52f
2:30 7 9 mph 1006.5mb 52f 52f
2:24 5 7 mph 1006.3mb 53f 52f
2:18 6 10 mph 1006.4mb 52f 52f
2:12 8 10 mph 1006.3mb 52f 52f
2:06 7 10 mph 1006.3mb 53f 53f
2:00 6 10 mph 1006.3mb 52f 53f
1:54 6 10 mph 1006.1mb 52f 53f
1:48 9 13 mph 1005.8mb 53f 53f
1:42 7 13 mph 1005.9mb 53f 53f
1:36 7 13 mph 1005.9mb 52f 54f
1:30 8 14 mph 1005.8mb 52f 53f
1:24 8 15 mph 1005.7mb 52f 53f
1:18 7 11 mph 1005.6mb 52f 53f
1:12 8 17 mph 1005.4mb 52f 52f
1:06 14 16 mph 1004.9mb 52f 52f
1:00 13 16 mph 1005.1mb 52f 52f
12:54 8 14 mph 1005.4mb 52f 52f
12:48 8 13 mph 1005.8mb 52f 52f
12:42 8 13 mph 1006.2mb 52f 52f
12:36 6 8 mph 1006.5mb 52f 52f
12:30 7 8 mph 1006.6mb 52f 52f
12:24 6 9 mph 1006.7mb 52f 52f
12:18 8 10 mph 1006.8mb 52f 52f
12:12 7 11 mph 1006.9mb 52f 52f
12:06 8 11 mph 1006.9mb 52f 51f
12:00 3 8 mph 1007mb 52f 51f
11:54 6 8 mph 1007mb 52f 51f
11:48 6 13 mph 1007.1mb 52f 51f
11:42 6 10 mph 1007mb 52f 51f
11:36 6 15 mph 1006.8mb 52f 51f
11:30 10 14 mph 1006.7mb 52f 51f
11:24 8 14 mph 1006.4mb 52f 51f
11:18 7 13 mph 1006.3mb 52f 51f
11:12 8 13 mph 1006.4mb 52f 51f
11:06 7 16 mph 1006.6mb 52f 51f
11:00 9 14 mph 1006.6mb 52f 51f
10:54 10 14 mph 1006.7mb 52f 50f
10:48 8 13 mph 1006.8mb 52f 51f
10:42 11 17 mph 1006.7mb 51f 50f
10:36 7 13 mph 1006.8mb 51f 51f
10:30 10 16 mph 1006.8mb 51f 50f
10:24 10 21 mph 1006.8mb 51f 50f
10:18 11 15 mph 1006.7mb 51f 50f
10:12 8 13 mph 1006.8mb 51f 50f
10:06 9 14 mph 1006.8mb 51f 50f
10:00 6 11 mph 1006.8mb 51f 50f
9:54 8 10 mph 1006.8mb 51f 49f
9:48 8 13 mph 1006.8mb 51f 49f
9:42 9 11 mph 1006.8mb 51f 49f
9:36 8 10 mph 1006.7mb 51f 49f
9:30 8 11 mph 1006.7mb 51f 49f
9:24 6 8 mph 1006.6mb 51f 49f
9:18 6 9 mph 1006.7mb 51f 49f
9:12 7 9 mph 1006.7mb 51f 49f
9:06 5 8 mph 1006.6mb 51f 49f
9:00 6 8 mph 1006.5mb 51f 49f
8:54 7 9 mph 1006.5mb 51f 49f
8:48 7 11 mph 1006.4mb 51f 49f
8:42 7 13 mph 1006.4mb 51f 49f
8:36 8 11 mph 1006.3mb 51f 49f
8:30 7 10 mph 1006.3mb 51f 49f
8:24 7 10 mph 1006.2mb 51f 49f
8:18 6 9 mph 1006.2mb 51f 49f
8:12  -  mph 1006.1mb 51f 49f
8:06  -  mph 1006mb 51f 49f
8:00  -  mph 1005.9mb 51f 49f
7:54  -  mph 1005.8mb 51f 49f
5:12 3 6 mph 1002.7mb 52f 51f
5:06 3 6 mph 1002.7mb 52f 51f
5:00 3 6 mph 1002.5mb 53f 51f
4:54 5 6 mph 1002.4mb 53f 51f
4:48 3 6 mph 1002.2mb 53f 51f
4:42 3 6 mph 1002.1mb 54f 51f
4:36 5 7 mph 1001.9mb 54f 51f
4:30 5 8 mph 1001.7mb 54f 51f
4:24 6 7 mph 1001.8mb 54f 51f
4:18 7 10 mph 1001.9mb 54f 51f
4:12 6 13 mph 1001.9mb 54f 51f
4:06 6 9 mph 1001.9mb 54f 51f
4:00 5 10 mph 1001.8mb 54f 51f
3:54 8 10 mph 1001.7mb 54f 51f
3:48 8 11 mph 1001.7mb 54f 51f
3:42 6 11 mph 1001.6mb 54f 51f
3:36 6 14 mph 1001.4mb 54f 52f
3:30 7 11 mph 1001.3mb 54f 52f
3:24 9 13 mph 1001.2mb 54f 52f
3:18 7 10 mph 1001.2mb 54f 52f
3:12 10 14 mph 1001mb 54f 52f
3:06 7 14 mph 1001mb 53f 52f
3:00 9 14 mph 1000.7mb 53f 52f
2:54 11 15 mph 1000.7mb 53f 52f
2:48 9 15 mph 1000.8mb 53f 52f
2:42 10 16 mph 1000.6mb 53f 52f
2:36 8 15 mph 1000.6mb 53f 52f
2:30 8 15 mph 1000.6mb 53f 52f
2:24 8 15 mph 1000.5mb 53f 53f
2:18 10 16 mph 1000.4mb 53f 53f
2:12 8 14 mph 1000.4mb 53f 53f
2:06 9 15 mph 1000.3mb 53f 53f
2:00 10 16 mph 1000.3mb 53f 53f
1:54 9 14 mph 1000.2mb 53f 53f
1:48 9 16 mph 1000mb 53f 53f
1:42 10 15 mph 999.9mb 53f 54f
1:36 8 15 mph 1000mb 53f 54f
1:30 8 13 mph 999.9mb 53f 54f
1:24 8 13 mph 999.9mb 53f 54f
1:18 9 14 mph 999.8mb 53f 54f
1:12 9 14 mph 999.9mb 53f 54f
1:06 7 10 mph 999.9mb 53f 54f
1:00 7 10 mph 999.8mb 53f 54f
12:54 7 9 mph 999.8mb 53f 54f
12:48 7 11 mph 999.8mb 53f 54f
12:42 8 11 mph 999.8mb 53f 54f
12:36 6 9 mph 999.9mb 53f 54f
12:30 7 11 mph 999.9mb 53f 55f
12:24 8 13 mph 999.9mb 53f 55f
12:18 8 13 mph 999.9mb 53f 55f
12:12 8 11 mph 999.9mb 53f 54f
12:06 6 8 mph 999.9mb 53f 54f
12:00 5 8 mph 999.9mb 53f 54f
Sa 10/18 11:54 6 9 mph 999.9mb 53f 54f
11:48 6 9 mph 999.9mb 53f 54f
11:42 6 8 mph 999.9mb 53f 54f
11:36 3 7 mph 999.8mb 53f 54f
11:30 6 7 mph 999.8mb 53f 54f
11:24 5 8 mph 999.7mb 53f 55f
11:18 5 8 mph 999.7mb 53f 55f
11:12 5 9 mph 999.7mb 53f 55f
11:06 7 10 mph 999.6mb 53f 55f
11:00 7 9 mph 999.5mb 53f 55f
10:54 6 8 mph 999.4mb 53f 55f
10:48 6 11 mph 999.4mb 53f 55f
10:42 5 7 mph 999.4mb 53f 55f
10:36 5 7 mph 999.3mb 53f 55f
10:30 3 7 mph 999.4mb 53f 55f
10:24 5 8 mph 999.4mb 53f 55f
10:18 6 8 mph 999.3mb 53f 56f
10:12 6 8 mph 999.2mb 53f 56f
10:06 3 6 mph 999.2mb 53f 56f
10:00 2 5 mph 999.2mb 53f 56f
9:54 2 6 mph 999.2mb 53f 56f
9:48 3 6 mph 999.2mb 53f 56f
9:42 3 8 mph 999.3mb 53f 56f
9:36 6 9 mph 999.3mb 53f 56f
9:30 5 9 mph 999.3mb 53f 57f
9:24 6 8 mph 999.3mb 53f 57f
9:18 6 8 mph 999.3mb 53f 57f
9:12 6 9 mph 999.3mb 53f 57f
9:06 6 9 mph 999.3mb 53f 57f
9:00 5 7 mph 999.3mb 53f 57f
8:54 5 8 mph 999.2mb 53f 57f
8:48 5 7 mph 999.1mb 53f 58f
8:42 5 8 mph 999.1mb 53f 58f
8:36 5 8 mph 999mb 53f 58f
8:30 6 9 mph 998.9mb 53f 58f
8:24 5 8 mph 998.8mb 53f 58f
8:18 3 5 mph 998.8mb 53f 58f
8:12 2 5 mph 998.9mb 53f 58f
8:06 2 5 mph 998.8mb 53f 58f
8:00 3 7 mph 998.6mb 53f 58f
7:54 3 7 mph 998.6mb 53f 58f
7:48 3 6 mph 998.6mb 53f 58f
7:42 2 5 mph 998.6mb 53f 58f
7:36 2 5 mph 998.5mb 53f 57f
7:30 3 5 mph 998.5mb 53f 57f
7:24 3 5 mph 998.4mb 53f 57f
7:18 3
mph
998.5mb 53f 57f
7:12 2 3 mph 998.5mb 53f 57f
7:06 3
mph
998.6mb 53f 57f
7:00 2 5 mph 998.5mb 53f 57f
6:54 3 6 mph 998.4mb 53f 58f
6:48 5 6 mph 998.4mb 53f 58f
6:42 5 6 mph 998.4mb 53f 58f
6:36 5 6 mph 998.4mb 53f 58f
6:30 2 6 mph 998.3mb 53f 58f
6:24 5 6 mph 998.4mb 53f 58f
6:18 5 6 mph 998.4mb 53f 58f
6:12 5 8 mph 998.4mb 53f 59f
6:06 5 8 mph 998.4mb 53f 59f
6:00 6 8 mph 998.3mb 53f 60f
5:54 6 8 mph 998.2mb 53f 59f
5:48 6 10 mph 998.1mb 53f 60f
5:42 6 8 mph 998mb 53f 60f
5:36 7 8 mph 998mb 53f 60f
5:30 7 13 mph 997.9mb 53f 60f
5:24 10 13 mph 997.8mb 53f 61f
5:18 7 10 mph 997.8mb 53f 62f
5:12 8 13 mph 997.7mb 53f 61f
5:06 5 8 mph 997.8mb 53f 60f
5:00 8 13 mph 997.7mb 53f 60f
4:54 5 7 mph 997.2mb 53f 59f
4:48 5 6 mph 997.5mb 53f 60f
4:42 3 13 mph 997.6mb 53f 60f
4:36 5 9 mph 997.4mb 53f 59f
4:30 1 3 mph 997.1mb 53f 58f
4:24 2 5 mph 997.1mb 53f 58f
4:18 2 7 mph 997.4mb 54f 58f
4:12 5 8 mph 997.3mb 54f 58f
4:06 7 9 mph 997.1mb 55f 59f
4:00 6 7 mph 997.2mb 55f 59f
3:54 7 9 mph 997.1mb 55f 59f
3:48 6 8 mph 997.3mb 55f 60f
3:42 9 14 mph 997.4mb 55f 59f
3:36 11 14 mph 997.5mb 55f 59f
3:30 7 8 mph 997.4mb 55f 59f
3:24 8 11 mph 997.5mb 55f 59f
3:18 8 14 mph 997.6mb 55f 59f
3:12 10 15 mph 997.6mb 55f 58f